Regional Weather Roundup
Issued by NWS

Home | Current Version | Previous Version | Graphics & Text | Print | Product List | Glossary On
Versions: 1 2 3 4 5 6 7 8 9 10 11 12 13 14 15 16 17 18 19 20 21 22 23 24 25 26 27 28 29 30 31 32 33 34 35 36 37 38 39 40 41 42 43 44 45 46 47 48 49 50
000
ASUS45 KABQ 060410
RWRNM
WEATHER ROUNDUP FOR NEW MEXICO
NATIONAL WEATHER SERVICE ALBUQUERQUE NM
1000 PM MDT TUE MAY 05 2015

NOTE: "FAIR" MEANS FEW OR NO CLOUDS BELOW 12,000 FEET AGL WITH NO
       SIGNIFICANT WEATHER OR OBSTRUCTIONS TO VISION.

      THIS PRODUCT IS RELEASED AS TWO VERSIONS.  ONE VERSION NEAR
      THE TOP OF THE HOUR CONTAINING PRELIMINARY DATA FROM ALBUQUERQUE
      AND OTHER STATIONS.  A FINAL VERSION WITH ADDITIONAL DATA IS
      ISSUED ABOUT 10 MINUTES AFTER THE HOUR.

NMZ501-503-504-510>518-060500-
NORTHWEST PLATEAU/NORTHCENTRAL MOUNTAINS

CITY           SKY/WX    TMP DP  RH WIND       PRES   REMARKS
FARMINGTON     MOCLDY    53  44  71 W3        29.89R
LOS ALAMOS     MOCLDY    44  44  99 S8        29.99R
SANTA FE       PTCLDY    47  43  86 CALM      29.96R
TAOS           CLOUDY    46  36  66 W6        29.96R
ANGEL FIRE     CLOUDY    43  36  77 SE3       29.94R

$$
NMZ402-403-502-505>509-060500-
WESTCENTRAL MOUNTAINS/SOUTHWEST MOUNTAINS

CITY           SKY/WX    TMP DP  RH WIND       PRES   REMARKS
GALLUP         CLOUDY    48  44  86 SW5       30.00R
GRANTS         MOCLDY    44  42  93 W3        30.02R
SILVER CITY      N/A     55  37  50 NW9       30.03R

$$
NMZ407-409-411-412-060500-
SOUTHERN DESERTS

CITY           SKY/WX    TMP DP  RH WIND       PRES   REMARKS
LORDSBURG      FAIR      61  39  44 NW7       29.98R
DEMING         CLEAR     65  38  36 NW10      29.96R
LAS CRUCES     PTCLDY    64  33  31 W5        29.97R
HOLLOMAN AFB   MOCLDY    67  37  33 W12       29.91R
ALAMOGORDO     MOCLDY    63  36  36 S3        29.94R
T OR C         PTCLDY    63  34  33 W8        29.95R

$$
NMZ519>523-060500-
CENTRAL VALLEYS/CENTRAL HIGHLANDS

CITY           SKY/WX    TMP DP  RH WIND       PRES   REMARKS
ALBUQUERQUE    MOCLDY    53  47  79 S6        29.96R
DOUBLE EAGLE   CLOUDY    52  46  82 S9        29.97R
MORIARTY ARPT  FAIR      46  41  84 SW7       29.99R
CLINES CORNERS PTCLDY    44  39  82 W21       29.95R
BELEN          MOCLDY    51  46  84 SE3       29.97R
SOCORRO        CLOUDY    60  42  51 NW13      29.94R

$$
NMZ524>526-539-540-060500-
SOUTHCENTRAL MOUNTAINS

CITY           SKY/WX    TMP DP  RH WIND       PRES   REMARKS
RUIDOSO        PTCLDY    48  37  66 W5        30.03S

$$
NMZ527>531-060500-
NORTHEAST HIGHLANDS/NORTHEAST PLAINS

CITY           SKY/WX    TMP DP  RH WIND       PRES   REMARKS
LAS VEGAS      MOCLDY    48  38  68 SW13      29.92R
RATON          PTCLDY    51  43  74 CALM      29.84R
CLAYTON        PTCLDY    49  47  93 S13       29.82S

$$
NMZ532>537-060500-
EASTCENTRAL PLAINS

CITY           SKY/WX    TMP DP  RH WIND       PRES   REMARKS
TUCUMCARI      CLEAR     55  48  77 SW8       29.83R
CANNON AFB     PTCLDY    60  48  66 W5        29.89R
CLOVIS AIRPORT CLOUDY    55  50  82 SE7       29.89R

$$
NMZ028-029-538-060500-
SOUTHEAST PLAINS

CITY           SKY/WX    TMP DP  RH WIND       PRES   REMARKS
ROSWELL        PTCLDY    58  46  64 SW9       29.86R
ARTESIA        CLEAR     64  41  42 SW12      29.88R
CARLSBAD       CLEAR     59  48  67 SW9       29.86R
HOBBS          CLEAR     59  46  63 SW10      29.90R


$$



USA.gov is the U.S. government's official web portal to all federal, state and local government web resources and services.